Tracking 30692 objects as of 16-Jun-2025
HD Live streaming from Space Station
objects crossing your sky now

STARLINK-1210

Track STARLINK-1210 now!
10-day predictions
STARLINK-1210 is classified as:


NORAD ID: 45207
Int'l Code: 2020-012AF
Perigee: 466.5 km
Apogee: 480.3 km
Inclination: 53.0 °
Period: 93.9 minutes
Semi major axis: 6844 km
RCS: Unknown
Launch date: February 17, 2020
Source: United States (US)
Launch site: AIR FORCE EASTERN TEST RANGE (AFETR)
Your satellite tracking list
Your tracking list is empty




NASA's NSSDC Master Catalog

Two Line Element Set (TLE):
1 45207U 20012AF  25166.89314711  .00065756  00000-0  20123-2 0  9996
2 45207  53.0322 119.7139 0010082 338.3796  21.6777 15.33199492295255
Source of the keplerian elements: AFSPC